This demonstration page uses our WeatherBlox Daily Observations layout. Learn more.

39.29038, -76.61219

Hourly Observations for September 16, 2016

Temp ( °F °C ) Dew Point ( °F °C ) Humidity (%) Winds ( mph kmh ) Pressure ( in mb ) Visibility ( mi km ) Precip ( " mm )
12:54 am 00:54 undefined 68 20 56 13.3 65 65 undefined N/A 30.27 1025 N/A 0 0
1:54 am 01:54 undefined 68 20 55 12.8 63 63 undefined N/A 30.27 1025 N/A 0 0
2:54 am 02:54 undefined 68 20 55 12.8 63 63 undefined N/A 30.26 1025 N/A 0 0
3:54 am 03:54 undefined 67 19.4 56 13.3 68 68 undefined N/A 30.25 1025 N/A 0 0
4:54 am 04:54 undefined 67 19.4 56 13.3 68 68 undefined N/A 30.26 1025 N/A 0 0
5:54 am 05:54 undefined 66 18.9 57 13.9 73 73 undefined N/A 30.27 1025 N/A 0 0
6:54 am 06:54 undefined 65 18.3 57 13.9 76 76 undefined N/A 30.28 1025 N/A 0 0
7:54 am 07:54 undefined 66 18.9 57 13.9 73 73 undefined N/A 30.29 1026 N/A 0 0
8:54 am 08:54 undefined 69 20.6 57 13.9 66 66 undefined N/A 30.29 1026 N/A 0 0
9:54 am 09:54 undefined 70 21.1 54 12.2 57 57 undefined N/A 30.3 1026 N/A 0 0
10:54 am 10:54 undefined 72 22.2 52 11.1 50 50 undefined N/A 30.31 1026 N/A 0 0
11:54 am 11:54 undefined 73 22.8 51 10.6 46 46 undefined N/A 30.31 1026 N/A 0 0
12:54 pm 12:54 undefined 73 22.8 51 10.6 46 46 undefined N/A 30.29 1026 N/A 0 0
1:54 pm 13:54 undefined 74 23.3 52 11.1 46 46 undefined N/A 30.27 1025 N/A 0 0
2:54 pm 14:54 undefined 75 23.9 51 10.6 43 43 undefined N/A 30.26 1025 N/A 0 0
3:54 pm 15:54 undefined 74 23.3 53 11.7 48 48 undefined N/A 30.24 1024 N/A 0 0
4:54 pm 16:54 undefined 75 23.9 55 12.8 50 50 undefined N/A 30.22 1023 N/A 0 0
5:54 pm 17:54 undefined 75 23.9 55 12.8 50 50 undefined N/A 30.22 1023 N/A 0 0
6:54 pm 18:54 undefined 74 23.3 56 13.3 54 54 undefined N/A 30.22 1024 N/A 0 0
7:54 pm 19:54 undefined 73 22.8 53 11.7 50 50 undefined N/A 30.24 1024 N/A 0 0
8:54 pm 20:54 undefined 72 22.2 55 12.8 55 55 undefined N/A 30.25 1024 N/A 0 0
9:54 pm 21:54 undefined 71 21.7 56 13.3 59 59 undefined N/A 30.26 1025 N/A 0 0
10:54 pm 22:54 undefined 69 20.6 57 13.9 66 66 undefined N/A 30.26 1025 N/A 0 0
11:54 pm 23:54 undefined 69 20.6 57 13.9 66 66 undefined N/A 30.26 1025 N/A 0 0

Powered by AerisWeather